{"data":{"norad_id":81036,"intl_designator":"","name":"UNKNOWN","alt_names":[],"object_type":"UNKNOWN","status":"UNKNOWN","operator":null,"country":null,"launch_date":null,"launch_site_code":null,"launch_vehicle":null,"mission":null,"orbit_class":"UNKNOWN","rcs_meters":null,"size_class":null,"mass_kg":null,"dimensions":null,"purposes":[],"wikipedia_slug":null,"has_3d_model":false,"image_url":null,"decayed_at":null,"tle_current":{"epoch":"2026-09-17T00:09:24.774336Z","epoch_age_seconds":323702,"freshness":"STALE","line1":"1 81036U          26260.00653674  .00000928  00000+0  19375-2 0  9990","line2":"2 81036  66.0968 120.6997 2595221  96.5275 293.4330  9.33697886 47687","mean_motion":9.33697886,"eccentricity":0.2595221,"inclination_deg":66.0968,"raan_deg":120.6997,"arg_perigee_deg":96.5275,"mean_anomaly_deg":293.433,"bstar":0.0019375,"rev_number":4768,"period_min":154.22547502694,"perigee_km":675.98596047958,"apogee_km":5620.6326659704,"semimajor_km":9526.446313225,"source":"CELESTRAK","updated_at":"2026-09-20T09:00:32.382387Z"}}}